SCP
0 0 0 0 0 0 0 0 0 0 0 0 0 0 0 0 0 0 0 0 0 0 0 0 0 0 0 0 0 0 0 0 0 0 0 0 0 0 0 0 0 0 0 0 0 0 0 0 0 0 0 0 0 0
0 0 0 0 0 0 0 0 0 0 0 0 0 0 0 0 0 0 -0 0 0 0 0 0 0 0 0 0 0 0 0 0 0 0 0 0 0 0 0 0 0 0 0 0 0 0 0 0 0 0 0 0 0 0
0 0 0 0 0 0 0 0 0 0 0 0 0 0 0 0 0 0 0 0 0 0 0 0 0 0 0 0 0 0 0 0 0 0 0 0 -0 -0 0 0 0 0 0 0 0 0 0 0 0 0 0 0 0 0
0 0 0 0 0 0 0 0 0 0 0 0 0 0 0 0 0 0 0 0 0 0 0 0 0 0 0 0 0 0 0 0 0 0 0 0 0 0 0 0 0 0 0 0 0 0 0 0 0 0 0 0 0 0
0 0 0 0 0 0 0 0 0 0 0 0 0 0 0 0 0 0 0 0 0 0 0 0 0 0 0 0 0 0 0 0 0 0 0 0 0 0 0 0 0 0 0 0 0 0 0 0 0 0 0 0 0 0
0 0 0 0 0 0 0 0 0 0 0 0 0 0 0 0 0 0 0 0 0 0 0 0 0 0 0 0 0 0 0 0 0 0 0 0 0 0 0 0 0 0 0 0 0 0 0 0 0 0 0 0 0 0
0 0 0 0 0 0 0 0 0 0 0 0 0 0 0 0 0 0 0 0 -0 0 0 0 0 0 0 0 0 0 0 0 0 0 0 0 0 0 0 0 0 0 0 0 0 0 0 0 0 0 0 0 0 0
0 0 0 0 0 0 0 0 0 0 0 0 0 0 0 0 0 0 0 0 0 0 0 0 0 0 0 0 0 0 0 0 0 0 0 0 0 0 0 0 0 0 0 0 0 0 0 0 0 0 0 0 0 0
0 0 0 0 0 0 0 0 0 0 0 0 0 0 0 0 0 0 0 0 0 0 0 0 0 0 0 0 0 0 0 0 0 0 0 0 0 0 0 0 0 0 0 0 0 0 0 0 0 0 0 0 0 0
0 0 0 0 0 0 0 0 0 0 0 0 0 0 0 0 0 0 0 0 0 0 0 0 0 0 0 0 0 0 0 0 0 0 0 0 0 0 0 0 0 0 0 0 0 0 0 0 0 0 0 0 0 0
0 0 0 0 0 0 0 0 0 0 0 0 0 0 0 0 0 0 0 0 0 0 0 0 0 0 0 0 0 0 0 0 0 0 0 0 0 0 0 0 0 0 0 0 0 0 0 0 0 0 0 0 0 0
0 0 0 0 0 0 0 0 0 0 0 0 0 0 0 0 0 0 0 0 0 0 0 0 0 0 0 0 0 0 0 0 0 0 0 0 0 0 0 0 0 0 0 0 0 0 0 0 0 0 0 0 0 0
0 0 0 0 0 0 0 0 0 0 0 0 0 0 0 0 0 0 0 0 0 0 0 0 0 0 0 0 0 0 0 0 0 0 0 0 0 0 0 0 0 0 0 0 0 0 0 0 0 0 0 0 0 0
-0 0 0 0 0 0 0 0 0 0 0 0 0 0 0 0 0 0 0 0 0 0 0 0 0 0 0 0 0 0 0 0 0 0 0 0 0 0 0 0 0 0 0 0 0 0 0 0 0 0 0 0 0 0
-0 0 0 0 0 0 0 0 0 0 0 0 0 0 0 0 0 0 0 0 0 0 0 0 0 0 0 0 0 0 0 0 0 0 0 0 0 0 0 0 0 0 0 0 0 0 0 0 0 0 0 0 0 0
-0 0 0 0 0 0 0 0 0 0 0 0 0 0 0 0 0 0 0 0 0 0 0 0 0 0 0 0 0 0 0 0 0 0 0 0 0 0 0 0 0 0 0 0 0 0 0 0 0 0 0 0 0 0
0 0 0 0 0 0 0 0 0 0 0 0 0 0 0 0 0 0 0 0 0 0 0 0 0 0 0 0 0 0 0 0 0 0 0 0 0 0 0 0 0 0 0 0 0 0 0 0 0 0 0 0 0 0
0 0 0 0 0 0 0 0 0 0 0 0 0 0 0 0 0 0 0 0 0 0 0 0 0 0 0 0 0 0 0 0 0 0 0 0 0 0 0 0 0 0 0 0 0 0 0 0 0 0 0 0 0 0
0 0 0 0 0 0 0 0 0 0 0 0 0 0 0 0 0 0 0 0 0 0 0 0 0 0 0 0 0 0 0 0 0 0 0 0 0 0 0 0 0 0 0 0 0 0 0 0 0 0 0 0 0 0
0 0 0 0 0 0 0 0 0 0 0 0 0 0 0 0 0 0 0 0 0 0 0 0 0 0 0 0 0 0 0 0 0 0 0 0 0 0 0 0 0 0 0 0 0 0 0 0 0 0 0 0 0 0
0 0 0 0 0 0 0 0 0 0 0 0 0 0 0 0 0 0 0 0 0 0 0 0 0 0 0 0 0 0 0 0 0 0 0 0 0 0 0 0 0 0 0 0 0 0 0 0 0 0 0 0 0 0
0 0 0 0 0 0 0 0 0 0 0 0 0 0 0 0 0 0 0 0 0 0 0 0 0 0 0 0 0 0 0 0 0 0 0 0 0 0 0 0 0 0 0 0 0 0 0 0 0 0 0 0 0 0
0 0 0 0 0 0 0 0 0 0 0 0 0 0 0 0 0 0 0 0 0 0 0 0 0 0 0 0 0 0 0 0 0 0 0 0 0 0 0 0 0 0 0 0 0 0 0 0 0 0 0 0 0 0
0 0 0 0 0 0 0 0 0 0 0 0 0 0 0 0 0 0 0 0 0 0 0 0 0 0 0 0 0 0 0 0 0 0 0 0 0 0 0 0 0 0 0 0 0 0 0 0 0 0 0 0 0 0
-0 0 0 0 0 0 0 0 0 0 0 0 0 0 0 0 0 0 0 0 0 0 0 0 0 0 0 0 0 0 0 0 0 0 0 0 0 0 0 0 0 0 0 0 0 0 0 0 0 0 0 0 0 0
0 0 0 0 0 0 0 0 0 0 0 0 0 0 0 0 0 0 0 0 0 0 0 0 0 0 0 0 0 0 0 0 0 0 0 0 0 0 0 0 0 0 0 0 0 0 0 0 0 0 0 0 0 0
0 0 0 0 0 0 0 0 0 0 0 0 0 0 0 0 0 0 0 0 0 0 0 0 0 0 0 0 0 0 0 0 0 0 0 0 0 0 0 0 0 0 0 0 0 0 0 0 0 0 0 0 0 0
0 0 0 0 0 0 0 0 0 0 0 0 0 0 0 0 0 0 0 0 0 0 0 0 0 0 0 0 0 0 0 0 0 0 0 0 0 0 0 0 0 0 0 0 0 0 0 0 0 0 0 0 0 0
0 0 0 0 0 0 0 0 0 0 0 0 0 0 0 0 0 0 0 0 0 0 0 0 0 0 0 0 0 0 0 0 0 0 0 0 0 0 0 0 0 0 0 0 0 0 0 0 0 0 0 0 0 0
0 0 0 0 0 0 0 0 0 0 0 0 0 0 0 0 0 0 0 0 0 0 0 0 0 0 0 0 0 0 0 0 0 0 0 0 0 0 0 0 0 0 0 0 0 0 0 0 0 0 0 0 0 0
0 0 0 0 0 0 0 0 0 0 0 0 0 0 0 0 0 0 0 0 0 0 0 0 0 0 0 0 0 0 0 0 0 0 0 0 0 0 0 0 0 0 0 0 0 0 0 0 0 0 0 0 0 0
0 0 0 0 0 0 0 0 0 0 0 0 0 0 0 0 0 0 0 0 0 0 0 0 0 0 0 0 0 0 0 0 0 0 0 0 0 0 0 0 0 0 0 0 0 0 0 0 0 0 0 0 0 0
0 0 0 0 0 0 0 0 0 0 0 0 0 0 0 0 0 0 0 0 0 0 0 0 0 0 0 0 0 0 0 0 0 0 0 -0 -0 -0 -0 0 0 0 0 0 0 0 0 0 0 0 0 0 0 0
Wind_Speed_500mb
51 56 55 56 56 56 56 55 57 55 52 48 44 44 40 37 42 43 46 38 75 41 57 37 63 46 19 34 19 11 6 6 2 8 7 7 11 15 6 7 16 20 18 10 7 10 16 26 10 18 9 5 2 4
52 55 54 54 54 52 47 48 51 52 53 49 46 45 43 41 36 37 42 41 34 36 25 67 61 65 62 50 40 39 8 9 18 4 6 1 4 4 8 6 3 6 11 12 17 13 4 22 12 14 16 12 10 7
51 50 46 45 47 47 44 43 46 49 50 47 46 46 43 44 42 41 46 37 34 31 37 44 51 62 68 64 62 15 17 17 12 12 2 2 7 7 6 11 3 6 0 4 5 3 5 9 17 6 9 6 8 10
46 45 40 40 41 39 40 41 43 46 44 44 47 50 51 48 47 46 51 51 48 12 3 9 54 60 59 64 61 62 45 24 25 18 5 3 5 8 5 2 7 5 8 8 9 6 7 24 26 26 15 7 2 4
40 39 40 39 39 39 40 42 44 43 47 48 51 51 55 55 52 46 52 55 53 32 5 7 10 40 60 71 61 54 50 39 17 7 5 6 4 6 2 3 5 14 13 10 10 9 3 3 13 39 37 29 12 3
42 39 38 39 39 39 39 40 42 41 37 35 37 41 42 44 42 40 30 61 58 45 8 4 9 22 38 43 43 50 49 43 30 12 7 12 10 8 6 6 10 39 28 19 7 10 11 5 3 20 42 27 14 8
40 41 37 39 37 38 40 37 35 34 31 24 24 27 31 36 41 51 13 9 26 47 11 0 4 10 28 31 28 34 42 28 21 9 9 8 8 15 4 7 5 24 30 22 15 15 17 13 8 23 31 26 19 17
36 36 35 33 34 35 33 33 29 23 24 18 13 16 16 22 35 50 64 34 8 46 20 5 3 5 28 14 9 22 20 20 18 12 9 5 9 4 7 12 1 17 20 17 17 13 13 23 19 22 27 30 29 26
31 31 31 35 32 24 20 19 19 17 16 17 16 15 18 28 19 43 47 53 52 27 5 9 15 9 35 15 13 14 16 6 13 5 6 16 5 10 4 2 17 13 14 18 16 20 26 32 32 32 32 30 28 26
32 32 30 36 31 26 23 24 29 31 26 23 18 9 9 16 30 18 21 21 30 22 19 3 2 6 32 15 9 11 11 6 6 9 19 6 5 7 4 8 14 13 10 15 27 27 33 34 33 34 32 30 25 21
27 26 29 28 31 27 24 23 26 27 25 23 16 16 16 11 26 21 14 13 11 10 20 28 21 6 21 8 6 9 5 6 8 8 11 5 6 10 9 10 10 11 11 15 23 27 25 27 29 26 24 21 19 17
21 21 25 27 25 24 22 20 22 27 27 19 12 13 9 13 19 12 10 3 12 15 15 17 22 25 16 16 6 7 4 3 10 12 7 6 4 7 13 11 10 12 16 19 24 25 26 25 23 21 18 16 14 12
29 24 22 22 23 23 14 18 18 22 27 33 10 8 14 14 15 10 15 8 6 8 11 15 9 26 15 11 6 6 10 10 16 4 8 6 12 8 10 12 12 14 17 19 21 22 21 20 19 17 15 13 12 11
28 30 25 18 11 15 21 22 18 19 13 11 12 10 11 9 8 8 10 11 8 17 42 33 4 8 11 7 7 11 5 9 4 8 12 4 12 9 10 12 15 16 17 18 20 20 19 18 18 18 16 13 9 7
32 27 21 14 8 8 2 18 28 29 12 12 10 11 10 6 3 5 5 6 11 16 43 21 11 7 6 8 5 8 6 8 12 10 2 9 14 15 16 19 21 22 23 25 27 27 27 24 22 22 22 19 16 13
27 13 11 5 8 13 14 9 23 34 15 5 13 9 8 6 4 11 19 9 17 7 22 11 7 7 5 10 9 7 13 13 4 3 14 17 17 19 22 24 26 28 30 32 33 32 32 30 27 27 28 26 23 19
15 11 8 5 11 18 14 5 15 9 9 8 5 16 14 14 11 10 15 18 25 3 3 2 6 4 7 8 6 5 2 3 9 18 19 20 21 25 30 33 34 35 37 37 38 36 34 34 30 26 24 25 21 18
10 15 15 10 11 12 2 9 10 11 9 15 6 10 17 25 9 17 24 27 10 14 10 6 10 13 8 7 4 4 11 21 20 24 27 26 28 31 31 38 39 35 38 38 35 35 32 27 24 25 23 23 17 16
14 19 15 9 6 4 7 9 10 7 11 10 18 21 23 18 42 30 21 19 30 25 16 13 14 7 5 7 8 16 19 14 19 31 32 31 32 34 36 38 39 37 37 36 32 31 28 25 25 23 20 18 10 10
22 27 9 8 14 7 10 11 10 13 5 9 14 16 13 14 18 31 46 42 37 19 17 11 7 8 7 10 10 12 19 29 35 40 37 33 32 33 35 35 34 32 33 32 31 28 23 20 18 15 12 9 7 5
8 8 15 18 10 18 15 10 12 10 11 12 14 9 12 20 22 29 25 32 25 17 7 16 18 16 10 10 11 16 21 25 24 17 28 37 31 32 33 31 28 28 28 27 23 23 16 14 13 10 7 6 6 6
13 17 16 15 12 11 16 16 11 9 9 11 11 11 11 5 12 23 18 38 16 17 13 17 21 19 20 23 23 21 23 22 30 31 32 33 36 34 33 29 22 25 24 23 18 14 11 9 8 5 5 5 7 9
13 11 16 18 12 15 8 12 9 12 6 5 8 7 7 7 11 16 13 16 12 21 18 20 18 19 23 24 28 28 26 29 33 33 32 34 34 31 30 28 23 19 18 19 15 11 7 7 5 6 8 11 13 16
16 18 21 18 29 7 9 13 13 11 9 7 6 7 7 7 9 13 8 8 16 14 15 15 18 25 28 29 32 30 29 30 35 36 33 31 34 31 23 22 18 16 15 14 9 6 6 7 11 15 18 21 23 26
15 26 20 17 21 15 13 9 11 8 8 9 7 7 6 9 6 8 5 5 16 20 20 19 22 25 32 32 30 29 27 25 30 35 32 23 22 21 18 15 12 10 10 8 7 11 15 19 22 26 30 34 37 40
18 21 14 13 14 9 9 7 10 13 8 7 9 6 8 6 9 7 3 5 9 16 19 20 21 21 23 26 27 26 26 24 19 20 24 19 14 7 4 5 7 8 12 15 19 21 24 27 29 31 32 34 37 42
14 8 15 21 10 8 8 11 12 10 10 10 6 6 5 9 7 3 9 11 13 15 14 16 17 18 20 20 19 19 18 13 10 7 6 3 0 4 8 12 14 16 20 22 23 25 27 30 32 35 37 37 40 45
14 20 11 25 16 23 7 8 11 11 8 13 4 9 6 5 5 10 10 18 15 13 13 13 13 12 11 9 8 7 6 4 2 4 5 7 12 16 19 18 20 21 23 25 27 29 32 36 40 44 45 49 52 50
14 31 10 14 10 15 18 11 10 10 15 4 3 5 5 8 17 27 26 19 15 13 11 9 9 8 8 6 4 3 2 4 6 8 10 13 15 13 17 20 23 25 26 27 30 34 37 39 41 49 52 55 56 55
31 39 10 13 9 12 19 20 22 32 26 24 22 34 35 33 29 25 20 14 11 6 4 5 7 7 7 7 5 5 5 5 6 10 12 14 16 20 22 25 26 29 32 34 36 36 36 40 42 44 46 47 47 48
17 19 14 18 10 12 19 29 43 48 53 55 54 48 28 19 27 23 20 16 10 5 3 6 8 7 7 9 9 10 11 11 14 16 19 21 23 25 27 28 30 32 34 36 38 39 42 44 45 47 46 46 44 47
21 20 9 8 6 17 13 14 15 14 15 15 17 13 10 8 7 6 9 14 16 12 8 10 10 9 8 9 10 12 14 15 17 21 24 26 26 27 28 29 31 34 36 37 38 40 41 44 47 47 50 51 51 52
9 13 13 7 8 10 19 14 13 7 13 11 14 15 11 7 5 6 9 8 11 11 9 7 8 9 10 11 13 14 15 18 21 24 27 28 28 29 29 29 31 34 36 38 40 41 44 46 50 52 54 56 58 59
Wind_Direction_500mb
264 264 263 259 255 250 254 247 241 240 233 233 239 247 249 252 257 256 264 235 211 216 234 227 226 216 201 213 216 177 145 217 139 233 241 177 197 199 141 171 171 169 173 188 192 216 240 158 119 176 180 107 14 295
262 262 261 257 251 249 250 244 239 235 229 230 234 240 245 250 255 261 263 261 248 224 239 231 229 224 231 230 220 190 206 166 217 189 199 168 283 119 126 232 11 224 197 181 187 205 2 186 15 174 157 138 191 245
255 258 261 255 246 243 243 240 235 230 226 230 235 241 247 254 248 249 258 269 262 242 247 225 221 222 227 229 226 223 223 223 219 204 248 245 217 128 184 234 176 266 121 188 81 278 237 222 217 202 218 198 247 261
251 258 262 255 244 237 239 237 234 231 227 232 239 242 244 246 249 238 243 246 250 223 294 269 228 232 230 227 232 233 240 225 234 224 192 224 212 191 202 217 177 167 129 170 272 242 291 248 229 216 214 203 253 269
251 255 256 253 241 238 237 238 228 228 232 237 242 240 242 241 241 243 244 252 242 214 177 206 224 225 229 232 237 232 230 229 207 191 183 220 170 129 328 72 248 186 179 179 212 207 136 92 222 213 222 212 209 229
244 247 251 252 238 237 233 231 228 230 229 236 238 237 237 237 235 236 246 243 242 236 219 180 234 224 222 223 222 222 221 225 221 200 202 195 196 185 168 213 250 198 201 190 160 183 181 128 246 214 195 191 189 175
241 241 248 243 237 233 227 222 212 211 219 228 227 225 227 230 225 221 210 227 214 220 245 303 299 196 196 185 198 211 215 214 216 213 216 173 196 179 198 220 260 216 209 210 218 184 177 167 153 175 199 204 190 166
237 237 243 228 221 219 208 204 191 197 202 206 232 239 231 227 233 233 229 238 174 188 189 179 164 158 174 143 173 193 190 191 203 190 162 170 145 189 233 232 307 181 184 176 177 173 160 170 165 157 168 174 172 164
232 234 227 219 197 190 198 207 208 218 217 220 237 256 262 246 236 237 237 229 237 240 258 150 152 208 174 152 157 173 172 183 181 163 200 163 157 214 237 354 151 155 167 152 142 155 145 145 137 134 135 135 152 157
224 231 219 213 190 197 201 213 217 214 222 226 229 234 234 217 239 213 184 202 205 224 232 283 165 151 169 150 173 152 186 194 172 218 148 204 229 113 124 146 162 173 181 177 153 132 141 140 142 140 140 139 141 146
212 216 208 214 201 209 215 232 227 219 211 213 200 209 233 250 175 186 194 183 180 193 205 193 189 132 184 138 145 183 188 165 169 227 160 192 262 151 144 166 172 173 166 159 175 175 165 157 151 149 146 151 159 173
208 204 197 198 199 201 219 214 210 206 200 197 191 228 217 209 225 193 181 240 189 203 186 166 171 165 158 145 133 167 191 122 202 145 111 221 188 124 170 174 171 170 158 151 160 163 163 164 161 162 164 168 174 186
174 169 172 185 189 174 170 201 203 206 207 215 225 214 166 223 221 199 175 257 163 156 171 160 135 145 144 162 132 150 184 211 125 95 208 213 127 134 164 170 165 166 163 158 159 163 165 169 171 174 176 175 173 178
151 141 138 149 181 216 229 226 203 220 175 184 177 235 191 210 242 196 185 178 206 177 155 183 136 142 132 144 135 167 192 149 123 171 229 132 150 140 143 151 157 149 152 152 152 152 152 148 148 144 143 142 145 163
134 143 146 124 88 32 268 212 202 215 201 219 219 213 201 203 348 307 348 138 93 191 156 153 110 124 143 146 133 123 140 195 203 215 89 124 139 137 132 133 137 138 138 137 133 134 131 125 122 121 115 112 109 109
160 166 169 26 9 356 343 256 200 187 198 211 1 332 352 116 349 23 3 21 17 154 176 138 143 159 150 133 139 166 170 209 147 72 121 128 121 120 123 125 127 127 129 128 126 123 121 119 120 119 117 115 113 112
187 207 228 310 327 333 337 183 169 106 101 88 50 13 355 43 54 38 17 342 333 338 194 208 146 106 102 94 93 38 60 24 119 108 113 118 119 117 118 119 119 122 122 122 119 118 119 115 110 112 118 111 109 109
227 242 258 280 307 317 78 64 83 71 69 41 79 31 57 40 25 31 10 3 11 13 36 61 360 48 39 114 119 78 104 106 111 113 105 108 111 112 115 115 115 116 116 114 115 110 103 108 113 103 100 97 94 94
284 269 259 260 239 220 94 63 50 87 60 85 80 64 64 74 47 48 45 61 75 83 85 50 55 53 54 35 29 71 99 116 121 108 105 105 108 115 116 115 115 118 115 111 112 113 113 112 105 103 99 96 93 82
211 255 273 208 189 142 89 59 71 81 58 83 65 48 63 61 36 33 43 56 61 53 46 44 37 358 15 38 85 116 130 129 121 109 106 112 115 116 116 116 117 118 115 114 112 106 102 103 103 100 98 88 69 46
149 159 158 157 99 69 81 63 69 76 102 79 93 60 76 45 33 13 24 32 63 35 64 41 30 39 50 84 108 126 130 137 126 128 133 122 127 127 122 119 119 117 113 110 107 106 106 101 95 84 65 39 7 343
115 126 108 86 79 74 71 47 79 87 75 99 68 58 48 36 22 20 26 43 60 19 27 24 44 65 85 91 97 110 118 129 128 124 126 122 121 121 118 114 121 114 111 104 99 97 91 83 69 46 6 343 326 322
96 80 60 38 83 53 18 30 64 34 64 61 54 46 43 49 35 25 71 56 56 21 50 69 68 83 89 97 105 106 116 130 127 125 127 125 120 115 115 114 109 106 107 107 101 87 76 61 26 353 344 338 332 325
70 53 31 37 28 19 11 34 35 34 55 51 49 56 40 36 48 63 72 57 10 40 75 88 101 101 99 104 103 103 110 121 124 122 120 121 119 113 111 108 110 109 105 92 71 44 11 339 333 328 325 321 316 311
76 14 24 5 13 18 27 23 14 20 53 35 71 55 37 34 66 58 65 36 35 56 73 92 103 108 103 98 102 105 110 123 123 116 109 101 103 109 113 109 98 80 60 36 324 315 314 315 314 311 310 310 308 306
67 24 41 6 6 30 354 40 27 20 11 57 45 58 48 61 67 61 59 115 73 75 85 91 99 107 108 108 109 117 116 113 112 119 113 106 107 106 77 40 7 343 325 320 315 312 311 311 311 311 311 312 313 313
45 343 21 19 4 2 48 43 33 45 49 32 359 15 56 66 74 93 131 129 115 100 95 102 107 109 109 113 122 131 140 135 117 108 99 103 260 299 313 319 321 320 314 315 318 320 320 321 320 319 319 319 317 316
53 33 22 357 33 27 60 40 29 24 13 348 324 40 68 62 116 147 143 137 120 101 97 102 111 118 122 128 139 161 181 203 266 292 296 305 307 308 311 318 323 326 327 326 324 322 318 317 316 314 316 318 319 320
18 348 26 21 25 50 37 21 9 339 329 342 43 87 101 80 124 132 135 128 117 98 91 92 109 116 106 97 76 35 333 301 303 309 317 313 314 308 312 313 313 312 311 310 310 310 309 310 312 311 314 314 315 315
8 19 58 28 47 48 20 36 35 50 70 86 99 104 96 98 111 117 116 113 105 110 96 68 55 42 25 22 21 10 348 325 311 310 308 303 299 298 298 297 298 300 302 304 306 305 303 303 304 302 304 306 309 311
28 26 45 44 66 28 43 69 73 73 76 81 91 89 91 99 92 82 80 67 53 40 66 59 38 13 359 344 331 325 316 302 293 290 294 299 301 301 300 301 301 300 301 304 307 308 309 309 309 310 312 313 315 315
24 32 33 52 34 30 53 53 50 53 42 50 43 51 53 64 78 80 38 37 33 32 24 356 350 341 330 316 304 303 302 302 305 306 307 307 308 306 304 303 303 302 304 304 305 305 306 308 310 312 313 314 315 315
36 31 41 42 27 20 9 14 35 37 36 34 33 29 32 37 56 30 360 357 5 6 10 347 332 321 319 317 320 318 317 316 315 314 313 313 312 311 310 309 306 305 304 305 306 307 308 309 309 310 311 311 311 311
Wind_Speed_850mb
51 56 55 56 56 56 56 55 57 55 52 48 44 44 40 37 42 43 46 38 75 41 57 37 63 46 19 34 19 11 6 6 2 8 7 7 11 15 6 7 16 20 18 10 7 10 16 26 10 18 9 5 2 4
52 55 54 54 54 52 47 48 51 52 53 49 46 45 43 41 36 37 42 41 34 36 25 67 61 65 62 50 40 39 8 9 18 4 6 1 4 4 8 6 3 6 11 12 17 13 4 22 12 14 16 12 10 7
51 50 46 45 47 47 44 43 46 49 50 47 46 46 43 44 42 41 46 37 34 31 37 44 51 62 68 64 62 15 17 17 12 12 2 2 7 7 6 11 3 6 0 4 5 3 5 9 17 6 9 6 8 10
46 45 40 40 41 39 40 41 43 46 44 44 47 50 51 48 47 46 51 51 48 12 3 9 54 60 59 64 61 62 45 24 25 18 5 3 5 8 5 2 7 5 8 8 9 6 7 24 26 26 15 7 2 4
40 39 40 39 39 39 40 42 44 43 47 48 51 51 55 55 52 46 52 55 53 32 5 7 10 40 60 71 61 54 50 39 17 7 5 6 4 6 2 3 5 14 13 10 10 9 3 3 13 39 37 29 12 3
42 39 38 39 39 39 39 40 42 41 37 35 37 41 42 44 42 40 30 61 58 45 8 4 9 22 38 43 43 50 49 43 30 12 7 12 10 8 6 6 10 39 28 19 7 10 11 5 3 20 42 27 14 8
40 41 37 39 37 38 40 37 35 34 31 24 24 27 31 36 41 51 13 9 26 47 11 0 4 10 28 31 28 34 42 28 21 9 9 8 8 15 4 7 5 24 30 22 15 15 17 13 8 23 31 26 19 17
36 36 35 33 34 35 33 33 29 23 24 18 13 16 16 22 35 50 64 34 8 46 20 5 3 5 28 14 9 22 20 20 18 12 9 5 9 4 7 12 1 17 20 17 17 13 13 23 19 22 27 30 29 26
31 31 31 35 32 24 20 19 19 17 16 17 16 15 18 28 19 43 47 53 52 27 5 9 15 9 35 15 13 14 16 6 13 5 6 16 5 10 4 2 17 13 14 18 16 20 26 32 32 32 32 30 28 26
32 32 30 36 31 26 23 24 29 31 26 23 18 9 9 16 30 18 21 21 30 22 19 3 2 6 32 15 9 11 11 6 6 9 19 6 5 7 4 8 14 13 10 15 27 27 33 34 33 34 32 30 25 21
27 26 29 28 31 27 24 23 26 27 25 23 16 16 16 11 26 21 14 13 11 10 20 28 21 6 21 8 6 9 5 6 8 8 11 5 6 10 9 10 10 11 11 15 23 27 25 27 29 26 24 21 19 17
21 21 25 27 25 24 22 20 22 27 27 19 12 13 9 13 19 12 10 3 12 15 15 17 22 25 16 16 6 7 4 3 10 12 7 6 4 7 13 11 10 12 16 19 24 25 26 25 23 21 18 16 14 12
29 24 22 22 23 23 14 18 18 22 27 33 10 8 14 14 15 10 15 8 6 8 11 15 9 26 15 11 6 6 10 10 16 4 8 6 12 8 10 12 12 14 17 19 21 22 21 20 19 17 15 13 12 11
28 30 25 18 11 15 21 22 18 19 13 11 12 10 11 9 8 8 10 11 8 17 42 33 4 8 11 7 7 11 5 9 4 8 12 4 12 9 10 12 15 16 17 18 20 20 19 18 18 18 16 13 9 7
32 27 21 14 8 8 2 18 28 29 12 12 10 11 10 6 3 5 5 6 11 16 43 21 11 7 6 8 5 8 6 8 12 10 2 9 14 15 16 19 21 22 23 25 27 27 27 24 22 22 22 19 16 13
27 13 11 5 8 13 14 9 23 34 15 5 13 9 8 6 4 11 19 9 17 7 22 11 7 7 5 10 9 7 13 13 4 3 14 17 17 19 22 24 26 28 30 32 33 32 32 30 27 27 28 26 23 19
15 11 8 5 11 18 14 5 15 9 9 8 5 16 14 14 11 10 15 18 25 3 3 2 6 4 7 8 6 5 2 3 9 18 19 20 21 25 30 33 34 35 37 37 38 36 34 34 30 26 24 25 21 18
10 15 15 10 11 12 2 9 10 11 9 15 6 10 17 25 9 17 24 27 10 14 10 6 10 13 8 7 4 4 11 21 20 24 27 26 28 31 31 38 39 35 38 38 35 35 32 27 24 25 23 23 17 16
14 19 15 9 6 4 7 9 10 7 11 10 18 21 23 18 42 30 21 19 30 25 16 13 14 7 5 7 8 16 19 14 19 31 32 31 32 34 36 38 39 37 37 36 32 31 28 25 25 23 20 18 10 10
22 27 9 8 14 7 10 11 10 13 5 9 14 16 13 14 18 31 46 42 37 19 17 11 7 8 7 10 10 12 19 29 35 40 37 33 32 33 35 35 34 32 33 32 31 28 23 20 18 15 12 9 7 5
8 8 15 18 10 18 15 10 12 10 11 12 14 9 12 20 22 29 25 32 25 17 7 16 18 16 10 10 11 16 21 25 24 17 28 37 31 32 33 31 28 28 28 27 23 23 16 14 13 10 7 6 6 6
13 17 16 15 12 11 16 16 11 9 9 11 11 11 11 5 12 23 18 38 16 17 13 17 21 19 20 23 23 21 23 22 30 31 32 33 36 34 33 29 22 25 24 23 18 14 11 9 8 5 5 5 7 9
13 11 16 18 12 15 8 12 9 12 6 5 8 7 7 7 11 16 13 16 12 21 18 20 18 19 23 24 28 28 26 29 33 33 32 34 34 31 30 28 23 19 18 19 15 11 7 7 5 6 8 11 13 16
16 18 21 18 29 7 9 13 13 11 9 7 6 7 7 7 9 13 8 8 16 14 15 15 18 25 28 29 32 30 29 30 35 36 33 31 34 31 23 22 18 16 15 14 9 6 6 7 11 15 18 21 23 26
15 26 20 17 21 15 13 9 11 8 8 9 7 7 6 9 6 8 5 5 16 20 20 19 22 25 32 32 30 29 27 25 30 35 32 23 22 21 18 15 12 10 10 8 7 11 15 19 22 26 30 34 37 40
18 21 14 13 14 9 9 7 10 13 8 7 9 6 8 6 9 7 3 5 9 16 19 20 21 21 23 26 27 26 26 24 19 20 24 19 14 7 4 5 7 8 12 15 19 21 24 27 29 31 32 34 37 42
14 8 15 21 10 8 8 11 12 10 10 10 6 6 5 9 7 3 9 11 13 15 14 16 17 18 20 20 19 19 18 13 10 7 6 3 0 4 8 12 14 16 20 22 23 25 27 30 32 35 37 37 40 45
14 20 11 25 16 23 7 8 11 11 8 13 4 9 6 5 5 10 10 18 15 13 13 13 13 12 11 9 8 7 6 4 2 4 5 7 12 16 19 18 20 21 23 25 27 29 32 36 40 44 45 49 52 50
14 31 10 14 10 15 18 11 10 10 15 4 3 5 5 8 17 27 26 19 15 13 11 9 9 8 8 6 4 3 2 4 6 8 10 13 15 13 17 20 23 25 26 27 30 34 37 39 41 49 52 55 56 55
31 39 10 13 9 12 19 20 22 32 26 24 22 34 35 33 29 25 20 14 11 6 4 5 7 7 7 7 5 5 5 5 6 10 12 14 16 20 22 25 26 29 32 34 36 36 36 40 42 44 46 47 47 48
17 19 14 18 10 12 19 29 43 48 53 55 54 48 28 19 27 23 20 16 10 5 3 6 8 7 7 9 9 10 11 11 14 16 19 21 23 25 27 28 30 32 34 36 38 39 42 44 45 47 46 46 44 47
21 20 9 8 6 17 13 14 15 14 15 15 17 13 10 8 7 6 9 14 16 12 8 10 10 9 8 9 10 12 14 15 17 21 24 26 26 27 28 29 31 34 36 37 38 40 41 44 47 47 50 51 51 52
9 13 13 7 8 10 19 14 13 7 13 11 14 15 11 7 5 6 9 8 11 11 9 7 8 9 10 11 13 14 15 18 21 24 27 28 28 29 29 29 31 34 36 38 40 41 44 46 50 52 54 56 58 59
Wind_Direction_850mb
264 264 263 259 255 250 254 247 241 240 233 233 239 247 249 252 257 256 264 235 211 216 234 227 226 216 201 213 216 177 145 217 139 233 241 177 197 199 141 171 171 169 173 188 192 216 240 158 119 176 180 107 14 295
262 262 261 257 251 249 250 244 239 235 229 230 234 240 245 250 255 261 263 261 248 224 239 231 229 224 231 230 220 190 206 166 217 189 199 168 283 119 126 232 11 224 197 181 187 205 2 186 15 174 157 138 191 245
255 258 261 255 246 243 243 240 235 230 226 230 235 241 247 254 248 249 258 269 262 242 247 225 221 222 227 229 226 223 223 223 219 204 248 245 217 128 184 234 176 266 121 188 81 278 237 222 217 202 218 198 247 261
251 258 262 255 244 237 239 237 234 231 227 232 239 242 244 246 249 238 243 246 250 223 294 269 228 232 230 227 232 233 240 225 234 224 192 224 212 191 202 217 177 167 129 170 272 242 291 248 229 216 214 203 253 269
251 255 256 253 241 238 237 238 228 228 232 237 242 240 242 241 241 243 244 252 242 214 177 206 224 225 229 232 237 232 230 229 207 191 183 220 170 129 328 72 248 186 179 179 212 207 136 92 222 213 222 212 209 229
244 247 251 252 238 237 233 231 228 230 229 236 238 237 237 237 235 236 246 243 242 236 219 180 234 224 222 223 222 222 221 225 221 200 202 195 196 185 168 213 250 198 201 190 160 183 181 128 246 214 195 191 189 175
241 241 248 243 237 233 227 222 212 211 219 228 227 225 227 230 225 221 210 227 214 220 245 303 299 196 196 185 198 211 215 214 216 213 216 173 196 179 198 220 260 216 209 210 218 184 177 167 153 175 199 204 190 166
237 237 243 228 221 219 208 204 191 197 202 206 232 239 231 227 233 233 229 238 174 188 189 179 164 158 174 143 173 193 190 191 203 190 162 170 145 189 233 232 307 181 184 176 177 173 160 170 165 157 168 174 172 164
232 234 227 219 197 190 198 207 208 218 217 220 237 256 262 246 236 237 237 229 237 240 258 150 152 208 174 152 157 173 172 183 181 163 200 163 157 214 237 354 151 155 167 152 142 155 145 145 137 134 135 135 152 157
224 231 219 213 190 197 201 213 217 214 222 226 229 234 234 217 239 213 184 202 205 224 232 283 165 151 169 150 173 152 186 194 172 218 148 204 229 113 124 146 162 173 181 177 153 132 141 140 142 140 140 139 141 146
212 216 208 214 201 209 215 232 227 219 211 213 200 209 233 250 175 186 194 183 180 193 205 193 189 132 184 138 145 183 188 165 169 227 160 192 262 151 144 166 172 173 166 159 175 175 165 157 151 149 146 151 159 173
208 204 197 198 199 201 219 214 210 206 200 197 191 228 217 209 225 193 181 240 189 203 186 166 171 165 158 145 133 167 191 122 202 145 111 221 188 124 170 174 171 170 158 151 160 163 163 164 161 162 164 168 174 186
174 169 172 185 189 174 170 201 203 206 207 215 225 214 166 223 221 199 175 257 163 156 171 160 135 145 144 162 132 150 184 211 125 95 208 213 127 134 164 170 165 166 163 158 159 163 165 169 171 174 176 175 173 178
151 141 138 149 181 216 229 226 203 220 175 184 177 235 191 210 242 196 185 178 206 177 155 183 136 142 132 144 135 167 192 149 123 171 229 132 150 140 143 151 157 149 152 152 152 152 152 148 148 144 143 142 145 163
134 143 146 124 88 32 268 212 202 215 201 219 219 213 201 203 348 307 348 138 93 191 156 153 110 124 143 146 133 123 140 195 203 215 89 124 139 137 132 133 137 138 138 137 133 134 131 125 122 121 115 112 109 109
160 166 169 26 9 356 343 256 200 187 198 211 1 332 352 116 349 23 3 21 17 154 176 138 143 159 150 133 139 166 170 209 147 72 121 128 121 120 123 125 127 127 129 128 126 123 121 119 120 119 117 115 113 112
187 207 228 310 327 333 337 183 169 106 101 88 50 13 355 43 54 38 17 342 333 338 194 208 146 106 102 94 93 38 60 24 119 108 113 118 119 117 118 119 119 122 122 122 119 118 119 115 110 112 118 111 109 109
227 242 258 280 307 317 78 64 83 71 69 41 79 31 57 40 25 31 10 3 11 13 36 61 360 48 39 114 119 78 104 106 111 113 105 108 111 112 115 115 115 116 116 114 115 110 103 108 113 103 100 97 94 94
284 269 259 260 239 220 94 63 50 87 60 85 80 64 64 74 47 48 45 61 75 83 85 50 55 53 54 35 29 71 99 116 121 108 105 105 108 115 116 115 115 118 115 111 112 113 113 112 105 103 99 96 93 82
211 255 273 208 189 142 89 59 71 81 58 83 65 48 63 61 36 33 43 56 61 53 46 44 37 358 15 38 85 116 130 129 121 109 106 112 115 116 116 116 117 118 115 114 112 106 102 103 103 100 98 88 69 46
149 159 158 157 99 69 81 63 69 76 102 79 93 60 76 45 33 13 24 32 63 35 64 41 30 39 50 84 108 126 130 137 126 128 133 122 127 127 122 119 119 117 113 110 107 106 106 101 95 84 65 39 7 343
115 126 108 86 79 74 71 47 79 87 75 99 68 58 48 36 22 20 26 43 60 19 27 24 44 65 85 91 97 110 118 129 128 124 126 122 121 121 118 114 121 114 111 104 99 97 91 83 69 46 6 343 326 322
96 80 60 38 83 53 18 30 64 34 64 61 54 46 43 49 35 25 71 56 56 21 50 69 68 83 89 97 105 106 116 130 127 125 127 125 120 115 115 114 109 106 107 107 101 87 76 61 26 353 344 338 332 325
70 53 31 37 28 19 11 34 35 34 55 51 49 56 40 36 48 63 72 57 10 40 75 88 101 101 99 104 103 103 110 121 124 122 120 121 119 113 111 108 110 109 105 92 71 44 11 339 333 328 325 321 316 311
76 14 24 5 13 18 27 23 14 20 53 35 71 55 37 34 66 58 65 36 35 56 73 92 103 108 103 98 102 105 110 123 123 116 109 101 103 109 113 109 98 80 60 36 324 315 314 315 314 311 310 310 308 306
67 24 41 6 6 30 354 40 27 20 11 57 45 58 48 61 67 61 59 115 73 75 85 91 99 107 108 108 109 117 116 113 112 119 113 106 107 106 77 40 7 343 325 320 315 312 311 311 311 311 311 312 313 313
45 343 21 19 4 2 48 43 33 45 49 32 359 15 56 66 74 93 131 129 115 100 95 102 107 109 109 113 122 131 140 135 117 108 99 103 260 299 313 319 321 320 314 315 318 320 320 321 320 319 319 319 317 316
53 33 22 357 33 27 60 40 29 24 13 348 324 40 68 62 116 147 143 137 120 101 97 102 111 118 122 128 139 161 181 203 266 292 296 305 307 308 311 318 323 326 327 326 324 322 318 317 316 314 316 318 319 320
18 348 26 21 25 50 37 21 9 339 329 342 43 87 101 80 124 132 135 128 117 98 91 92 109 116 106 97 76 35 333 301 303 309 317 313 314 308 312 313 313 312 311 310 310 310 309 310 312 311 314 314 315 315
8 19 58 28 47 48 20 36 35 50 70 86 99 104 96 98 111 117 116 113 105 110 96 68 55 42 25 22 21 10 348 325 311 310 308 303 299 298 298 297 298 300 302 304 306 305 303 303 304 302 304 306 309 311
28 26 45 44 66 28 43 69 73 73 76 81 91 89 91 99 92 82 80 67 53 40 66 59 38 13 359 344 331 325 316 302 293 290 294 299 301 301 300 301 301 300 301 304 307 308 309 309 309 310 312 313 315 315
24 32 33 52 34 30 53 53 50 53 42 50 43 51 53 64 78 80 38 37 33 32 24 356 350 341 330 316 304 303 302 302 305 306 307 307 308 306 304 303 303 302 304 304 305 305 306 308 310 312 313 314 315 315
36 31 41 42 27 20 9 14 35 37 36 34 33 29 32 37 56 30 360 357 5 6 10 347 332 321 319 317 320 318 317 316 315 314 313 313 312 311 310 309 306 305 304 305 306 307 308 309 309 310 311 311 311 311